owner,sensor,date,latitude,longitude,vertical_datum,mass_concentration_of_oxygen_in_sea_water,qcFlag 
TCOON,ioos:station:TCOON:127:1,2017-06-13T20:30:00Z,28.2598,-96.7737,1.0,6.4,1111122 
TCOON,ioos:station:TCOON:127:1,2017-06-13T21:30:00Z,28.2598,-96.7737,1.0,6.53,1111122 
TCOON,ioos:station:TCOON:127:1,2017-06-13T22:30:00Z,28.2598,-96.7737,1.0,6.57,1111122 
TCOON,ioos:station:TCOON:127:1,2017-06-13T23:30:00Z,28.2598,-96.7737,1.0,6.52,1111122 
TCOON,ioos:station:TCOON:127:1,2017-06-14T00:30:00Z,28.2598,-96.7737,1.0,6.4,1111122 
TCOON,ioos:station:TCOON:127:1,2017-06-14T01:30:00Z,28.2598,-96.7737,1.0,6.26,1111122 
TCOON,ioos:station:TCOON:127:1,2017-06-14T03:30:00Z,28.2598,-96.7737,1.0,6.09,1111122 
TCOON,ioos:station:TCOON:127:1,2017-06-14T04:30:00Z,28.2598,-96.7737,1.0,6.1,1111122 
TCOON,ioos:station:TCOON:127:1,2017-06-14T05:30:00Z,28.2598,-96.7737,1.0,6.0,1111122 
TCOON,ioos:station:TCOON:127:1,2017-06-14T06:30:00Z,28.2598,-96.7737,1.0,5.98,1111122 
TCOON,ioos:station:TCOON:127:1,2017-06-14T07:30:00Z,28.2598,-96.7737,1.0,5.97,1111122 
TCOON,ioos:station:TCOON:127:1,2017-06-14T08:30:00Z,28.2598,-96.7737,1.0,5.94,1111122 
TCOON,ioos:station:TCOON:127:1,2017-06-14T09:30:00Z,28.2598,-96.7737,1.0,5.86,1111122 
TCOON,ioos:station:TCOON:127:1,2017-06-14T10:30:00Z,28.2598,-96.7737,1.0,5.88,1111122 
TCOON,ioos:station:TCOON:127:1,2017-06-14T11:30:00Z,28.2598,-96.7737,1.0,5.79,1111122 
TCOON,ioos:station:TCOON:127:1,2017-06-14T12:30:00Z,28.2598,-96.7737,1.0,5.86,1111122 
TCOON,ioos:station:TCOON:127:1,2017-06-14T13:30:00Z,28.2598,-96.7737,1.0,5.93,1111122 
TCOON,ioos:station:TCOON:127:1,2017-06-14T14:30:00Z,28.2598,-96.7737,1.0,6.0,1111122 
TCOON,ioos:station:TCOON:127:1,2017-06-14T15:30:00Z,28.2598,-96.7737,1.0,6.08,1111122 
TCOON,ioos:station:TCOON:127:1,2017-06-14T16:30:00Z,28.2598,-96.7737,1.0,6.32,1111122 
TCOON,ioos:station:TCOON:127:1,2017-06-14T17:30:00Z,28.2598,-96.7737,1.0,6.58,1111122 
TCOON,ioos:station:TCOON:127:1,2017-06-14T18:30:00Z,28.2598,-96.7737,1.0,6.64,1111122 
TCOON,ioos:station:TCOON:127:1,2017-06-14T19:30:00Z,28.2598,-96.7737,1.0,6.7,1111122 
TCOON,ioos:station:TCOON:127:1,2017-06-14T20:30:00Z,28.2598,-96.7737,1.0,6.91,1111122 
TCOON,ioos:station:TCOON:127:1,2017-06-14T21:30:00Z,28.2598,-96.7737,1.0,6.98,1111122 
TCOON,ioos:station:TCOON:127:1,2017-06-14T22:30:00Z,28.2598,-96.7737,1.0,6.88,1111122 
TCOON,ioos:station:TCOON:127:1,2017-06-14T23:30:00Z,28.2598,-96.7737,1.0,6.84,1111122 
TCOON,ioos:station:TCOON:127:1,2017-06-15T00:30:00Z,28.2598,-96.7737,1.0,6.72,1111122 
TCOON,ioos:station:TCOON:127:1,2017-06-15T01:30:00Z,28.2598,-96.7737,1.0,6.42,1111122 
TCOON,ioos:station:TCOON:127:1,2017-06-15T02:30:00Z,28.2598,-96.7737,1.0,6.47,1111122 
TCOON,ioos:station:TCOON:127:1,2017-06-15T03:30:00Z,28.2598,-96.7737,1.0,6.34,1111122 
TCOON,ioos:station:TCOON:127:1,2017-06-15T04:30:00Z,28.2598,-96.7737,1.0,6.21,1111122 
TCOON,ioos:station:TCOON:127:1,2017-06-15T05:30:00Z,28.2598,-96.7737,1.0,6.16,1111122 
TCOON,ioos:station:TCOON:127:1,2017-06-15T06:30:00Z,28.2598,-96.7737,1.0,6.08,1111122 
TCOON,ioos:station:TCOON:127:1,2017-06-15T07:30:00Z,28.2598,-96.7737,1.0,5.95,1111122 
TCOON,ioos:station:TCOON:127:1,2017-06-15T08:30:00Z,28.2598,-96.7737,1.0,5.93,1111122 
TCOON,ioos:station:TCOON:127:1,2017-06-15T09:30:00Z,28.2598,-96.7737,1.0,5.88,1111122 
TCOON,ioos:station:TCOON:127:1,2017-06-15T10:30:00Z,28.2598,-96.7737,1.0,5.91,1111122 
TCOON,ioos:station:TCOON:127:1,2017-06-15T11:30:00Z,28.2598,-96.7737,1.0,5.87,1111122 
TCOON,ioos:station:TCOON:127:1,2017-06-15T12:30:00Z,28.2598,-96.7737,1.0,5.65,1111122 
TCOON,ioos:station:TCOON:127:1,2017-06-15T13:30:00Z,28.2598,-96.7737,1.0,5.81,1111122 
TCOON,ioos:station:TCOON:127:1,2017-06-15T14:30:00Z,28.2598,-96.7737,1.0,5.89,1111122 
TCOON,ioos:station:TCOON:127:1,2017-06-15T15:30:00Z,28.2598,-96.7737,1.0,6.13,1111122 
TCOON,ioos:station:TCOON:127:1,2017-06-15T16:30:00Z,28.2598,-96.7737,1.0,6.19,1111122 
TCOON,ioos:station:TCOON:127:1,2017-06-15T17:30:00Z,28.2598,-96.7737,1.0,6.48,1111122 
TCOON,ioos:station:TCOON:127:1,2017-06-15T18:30:00Z,28.2598,-96.7737,1.0,6.81,1111122 
TCOON,ioos:station:TCOON:127:1,2017-06-15T19:30:00Z,28.2598,-96.7737,1.0,6.98,1111122 
TCOON,ioos:station:TCOON:127:1,2017-06-15T21:30:00Z,28.2598,-96.7737,1.0,7.41,1111122 
TCOON,ioos:station:TCOON:127:1,2017-06-16T00:30:00Z,28.2598,-96.7737,1.0,7.42,1111122 
TCOON,ioos:station:TCOON:127:1,2017-06-16T01:30:00Z,28.2598,-96.7737,1.0,7.33,1111122 
TCOON,ioos:station:TCOON:127:1,2017-06-16T02:30:00Z,28.2598,-96.7737,1.0,7.24,1111122 
TCOON,ioos:station:TCOON:127:1,2017-06-16T03:30:00Z,28.2598,-96.7737,1.0,6.95,1111122 
TCOON,ioos:station:TCOON:127:1,2017-06-16T04:30:00Z,28.2598,-96.7737,1.0,6.77,1111122 
TCOON,ioos:station:TCOON:127:1,2017-06-16T05:30:00Z,28.2598,-96.7737,1.0,6.72,1111122 
TCOON,ioos:station:TCOON:127:1,2017-06-16T06:30:00Z,28.2598,-96.7737,1.0,6.56,1111122 
TCOON,ioos:station:TCOON:127:1,2017-06-16T07:30:00Z,28.2598,-96.7737,1.0,6.3,1111122 
TCOON,ioos:station:TCOON:127:1,2017-06-16T08:30:00Z,28.2598,-96.7737,1.0,6.19,1111122 
TCOON,ioos:station:TCOON:127:1,2017-06-16T09:30:00Z,28.2598,-96.7737,1.0,6.16,1111122 
TCOON,ioos:station:TCOON:127:1,2017-06-16T10:30:00Z,28.2598,-96.7737,1.0,6.07,1111122 
TCOON,ioos:station:TCOON:127:1,2017-06-16T11:30:00Z,28.2598,-96.7737,1.0,6.01,1111122 
TCOON,ioos:station:TCOON:127:1,2017-06-16T12:30:00Z,28.2598,-96.7737,1.0,6.0,1111122 
TCOON,ioos:station:TCOON:127:1,2017-06-16T13:30:00Z,28.2598,-96.7737,1.0,5.94,1111122 
TCOON,ioos:station:TCOON:127:1,2017-06-16T14:30:00Z,28.2598,-96.7737,1.0,6.0,1111122 
TCOON,ioos:station:TCOON:127:1,2017-06-16T15:30:00Z,28.2598,-96.7737,1.0,6.31,1111122 
TCOON,ioos:station:TCOON:127:1,2017-06-16T16:30:00Z,28.2598,-96.7737,1.0,5.96,1111122 
TCOON,ioos:station:TCOON:127:1,2017-06-16T17:30:00Z,28.2598,-96.7737,1.0,5.26,1111122 
TCOON,ioos:station:TCOON:127:1,2017-06-16T18:30:00Z,28.2598,-96.7737,1.0,5.78,1111122 
TCOON,ioos:station:TCOON:127:1,2017-06-16T19:30:00Z,28.2598,-96.7737,1.0,6.15,1111122 
TCOON,ioos:station:TCOON:127:1,2017-06-16T20:30:00Z,28.2598,-96.7737,1.0,6.58,1111122 
TCOON,ioos:station:TCOON:127:1,2017-06-16T21:30:00Z,28.2598,-96.7737,1.0,6.83,1111122 
TCOON,ioos:station:TCOON:127:1,2017-06-16T22:30:00Z,28.2598,-96.7737,1.0,6.71,1111122 
TCOON,ioos:station:TCOON:127:1,2017-06-16T23:30:00Z,28.2598,-96.7737,1.0,6.65,1111122 
TCOON,ioos:station:TCOON:127:1,2017-06-17T00:30:00Z,28.2598,-96.7737,1.0,6.76,1111122 
TCOON,ioos:station:TCOON:127:1,2017-06-17T18:00:00Z,28.2598,-96.7737,1.0,6.41,1111122 
TCOON,ioos:station:TCOON:127:1,2017-06-17T18:30:00Z,28.2598,-96.7737,1.0,6.36,1111122 
TCOON,ioos:station:TCOON:127:1,2017-06-17T19:30:00Z,28.2598,-96.7737,1.0,6.32,1111122 
TCOON,ioos:station:TCOON:127:1,2017-06-17T20:30:00Z,28.2598,-96.7737,1.0,6.38,1111122 
TCOON,ioos:station:TCOON:127:1,2017-06-17T21:30:00Z,28.2598,-96.7737,1.0,6.5,1111122 
TCOON,ioos:station:TCOON:127:1,2017-06-17T22:30:00Z,28.2598,-96.7737,1.0,6.5,1111122 
TCOON,ioos:station:TCOON:127:1,2017-06-17T23:30:00Z,28.2598,-96.7737,1.0,6.97,1111122 
TCOON,ioos:station:TCOON:127:1,2017-06-19T18:30:00Z,28.2598,-96.7737,1.0,6.55,1111122 
TCOON,ioos:station:TCOON:127:1,2017-06-19T19:30:00Z,28.2598,-96.7737,1.0,6.84,1111122 
TCOON,ioos:station:TCOON:127:1,2017-06-19T20:30:00Z,28.2598,-96.7737,1.0,7.26,1111122 
TCOON,ioos:station:TCOON:127:1,2017-06-19T21:30:00Z,28.2598,-96.7737,1.0,7.8,1111122 
TCOON,ioos:station:TCOON:127:1,2017-06-19T22:30:00Z,28.2598,-96.7737,1.0,7.78,1111122 
TCOON,ioos:station:TCOON:127:1,2017-06-19T23:30:00Z,28.2598,-96.7737,1.0,7.15,1111122 
TCOON,ioos:station:TCOON:127:1,2017-06-20T00:30:00Z,28.2598,-96.7737,1.0,7.25,1111122 
TCOON,ioos:station:TCOON:127:1,2017-06-20T01:30:00Z,28.2598,-96.7737,1.0,7.04,1111122 
TCOON,ioos:station:TCOON:127:1,2017-06-20T02:30:00Z,28.2598,-96.7737,1.0,6.92,1111122 
TCOON,ioos:station:TCOON:127:1,2017-06-20T03:30:00Z,28.2598,-96.7737,1.0,6.54,1111122 
TCOON,ioos:station:TCOON:127:1,2017-06-20T04:30:00Z,28.2598,-96.7737,1.0,6.44,1111122 
TCOON,ioos:station:TCOON:127:1,2017-06-20T05:30:00Z,28.2598,-96.7737,1.0,5.94,1111122 
TCOON,ioos:station:TCOON:127:1,2017-06-20T06:30:00Z,28.2598,-96.7737,1.0,5.88,1111122 
TCOON,ioos:station:TCOON:127:1,2017-06-20T07:30:00Z,28.2598,-96.7737,1.0,5.54,1111122 
TCOON,ioos:station:TCOON:127:1,2017-06-20T08:30:00Z,28.2598,-96.7737,1.0,5.58,1111122 
TCOON,ioos:station:TCOON:127:1,2017-06-20T09:30:00Z,28.2598,-96.7737,1.0,4.96,1111122 
TCOON,ioos:station:TCOON:127:1,2017-06-20T10:30:00Z,28.2598,-96.7737,1.0,4.41,1111122 
TCOON,ioos:station:TCOON:127:1,2017-06-20T11:30:00Z,28.2598,-96.7737,1.0,4.94,1111122 
TCOON,ioos:station:TCOON:127:1,2017-06-20T12:30:00Z,28.2598,-96.7737,1.0,5.04,1111122 
TCOON,ioos:station:TCOON:127:1,2017-06-20T13:30:00Z,28.2598,-96.7737,1.0,5.02,1111122 
TCOON,ioos:station:TCOON:127:1,2017-06-20T14:30:00Z,28.2598,-96.7737,1.0,4.93,1111122 
TCOON,ioos:station:TCOON:127:1,2017-06-20T15:30:00Z,28.2598,-96.7737,1.0,5.33,1111122 
TCOON,ioos:station:TCOON:127:1,2017-06-20T16:30:00Z,28.2598,-96.7737,1.0,5.4,1111122 
TCOON,ioos:station:TCOON:127:1,2017-06-20T17:30:00Z,28.2598,-96.7737,1.0,5.52,1111122 
TCOON,ioos:station:TCOON:127:1,2017-06-20T18:30:00Z,28.2598,-96.7737,1.0,6.19,1111122 
TCOON,ioos:station:TCOON:127:1,2017-06-20T19:30:00Z,28.2598,-96.7737,1.0,6.38,1111122 
TCOON,ioos:station:TCOON:127:1,2017-06-20T20:30:00Z,28.2598,-96.7737,1.0,6.34,1111122 
TCOON,ioos:station:TCOON:127:1,2017-06-20T21:30:00Z,28.2598,-96.7737,1.0,6.52,1111122 
TCOON,ioos:station:TCOON:127:1,2017-06-20T22:30:00Z,28.2598,-96.7737,1.0,6.66,1111122 
TCOON,ioos:station:TCOON:127:1,2017-06-20T23:30:00Z,28.2598,-96.7737,1.0,6.84,1111122 
TCOON,ioos:station:TCOON:127:1,2017-06-21T00:30:00Z,28.2598,-96.7737,1.0,7.16,1111122 
TCOON,ioos:station:TCOON:127:1,2017-06-21T01:30:00Z,28.2598,-96.7737,1.0,6.58,1111122 
TCOON,ioos:station:TCOON:127:1,2017-06-21T02:30:00Z,28.2598,-96.7737,1.0,6.33,1111122 
TCOON,ioos:station:TCOON:127:1,2017-06-21T03:30:00Z,28.2598,-96.7737,1.0,6.26,1111122 
TCOON,ioos:station:TCOON:127:1,2017-06-21T04:30:00Z,28.2598,-96.7737,1.0,5.83,1111122 
TCOON,ioos:station:TCOON:127:1,2017-06-21T05:30:00Z,28.2598,-96.7737,1.0,5.82,1111122 
TCOON,ioos:station:TCOON:127:1,2017-06-21T06:30:00Z,28.2598,-96.7737,1.0,5.48,1111122 
TCOON,ioos:station:TCOON:127:1,2017-06-21T07:30:00Z,28.2598,-96.7737,1.0,5.06,1111122 
TCOON,ioos:station:TCOON:127:1,2017-06-21T08:30:00Z,28.2598,-96.7737,1.0,4.88,1111122 
TCOON,ioos:station:TCOON:127:1,2017-06-21T09:30:00Z,28.2598,-96.7737,1.0,4.7,1111122 
TCOON,ioos:station:TCOON:127:1,2017-06-21T10:30:00Z,28.2598,-96.7737,1.0,4.72,1111122 
TCOON,ioos:station:TCOON:127:1,2017-06-21T11:30:00Z,28.2598,-96.7737,1.0,4.58,1111122 
TCOON,ioos:station:TCOON:127:1,2017-06-21T12:30:00Z,28.2598,-96.7737,1.0,4.54,1111122 
TCOON,ioos:station:TCOON:127:1,2017-06-21T13:30:00Z,28.2598,-96.7737,1.0,4.13,1111122 
TCOON,ioos:station:TCOON:127:1,2017-06-21T14:30:00Z,28.2598,-96.7737,1.0,3.76,1111122 
TCOON,ioos:station:TCOON:127:1,2017-06-21T15:30:00Z,28.2598,-96.7737,1.0,3.65,1111122 
TCOON,ioos:station:TCOON:127:1,2017-06-21T16:30:00Z,28.2598,-96.7737,1.0,3.52,1111122 
TCOON,ioos:station:TCOON:127:1,2017-06-21T17:30:00Z,28.2598,-96.7737,1.0,3.52,1111122 
TCOON,ioos:station:TCOON:127:1,2017-06-21T18:30:00Z,28.2598,-96.7737,1.0,3.75,1111122 
TCOON,ioos:station:TCOON:127:1,2017-06-21T19:30:00Z,28.2598,-96.7737,1.0,3.75,1111122 
TCOON,ioos:station:TCOON:127:1,2017-06-21T20:30:00Z,28.2598,-96.7737,1.0,3.48,1111122 
TCOON,ioos:station:TCOON:127:1,2017-06-21T21:30:00Z,28.2598,-96.7737,1.0,3.43,1111122 
TCOON,ioos:station:TCOON:127:1,2017-06-21T22:30:00Z,28.2598,-96.7737,1.0,4.01,1111122 
TCOON,ioos:station:TCOON:127:1,2017-06-21T23:30:00Z,28.2598,-96.7737,1.0,4.12,1111122 
TCOON,ioos:station:TCOON:127:1,2017-06-22T00:30:00Z,28.2598,-96.7737,1.0,4.07,1111122 
TCOON,ioos:station:TCOON:127:1,2017-06-22T01:30:00Z,28.2598,-96.7737,1.0,3.87,1111122 
TCOON,ioos:station:TCOON:127:1,2017-06-22T02:30:00Z,28.2598,-96.7737,1.0,3.81,1111122 
TCOON,ioos:station:TCOON:127:1,2017-06-22T03:30:00Z,28.2598,-96.7737,1.0,3.37,1111122 
TCOON,ioos:station:TCOON:127:1,2017-06-22T04:30:00Z,28.2598,-96.7737,1.0,3.68,1111122 
TCOON,ioos:station:TCOON:127:1,2017-06-22T05:30:00Z,28.2598,-96.7737,1.0,3.39,1111122 
TCOON,ioos:station:TCOON:127:1,2017-06-22T06:30:00Z,28.2598,-96.7737,1.0,3.16,1111122 
TCOON,ioos:station:TCOON:127:1,2017-06-22T07:30:00Z,28.2598,-96.7737,1.0,3.26,1111122 
TCOON,ioos:station:TCOON:127:1,2017-06-22T08:30:00Z,28.2598,-96.7737,1.0,2.8,1111122 
TCOON,ioos:station:TCOON:127:1,2017-06-22T09:30:00Z,28.2598,-96.7737,1.0,3.27,1111122 
TCOON,ioos:station:TCOON:127:1,2017-06-22T10:30:00Z,28.2598,-96.7737,1.0,3.77,1111122 
TCOON,ioos:station:TCOON:127:1,2017-06-22T11:30:00Z,28.2598,-96.7737,1.0,4.04,1111122 
TCOON,ioos:station:TCOON:127:1,2017-06-22T12:30:00Z,28.2598,-96.7737,1.0,4.43,1111122 
TCOON,ioos:station:TCOON:127:1,2017-06-22T13:30:00Z,28.2598,-96.7737,1.0,3.88,1111122 
TCOON,ioos:station:TCOON:127:1,2017-06-22T14:30:00Z,28.2598,-96.7737,1.0,3.49,1111122 
TCOON,ioos:station:TCOON:127:1,2017-06-22T15:30:00Z,28.2598,-96.7737,1.0,4.05,1111122 
TCOON,ioos:station:TCOON:127:1,2017-06-22T16:30:00Z,28.2598,-96.7737,1.0,3.84,1111122 
TCOON,ioos:station:TCOON:127:1,2017-06-22T17:30:00Z,28.2598,-96.7737,1.0,4.07,1111122 
TCOON,ioos:station:TCOON:127:1,2017-06-22T18:30:00Z,28.2598,-96.7737,1.0,5.3,1111122 
TCOON,ioos:station:TCOON:127:1,2017-06-22T19:30:00Z,28.2598,-96.7737,1.0,5.28,1111122 
TCOON,ioos:station:TCOON:127:1,2017-06-22T20:30:00Z,28.2598,-96.7737,1.0,5.79,1111122 
TCOON,ioos:station:TCOON:127:1,2017-06-22T21:30:00Z,28.2598,-96.7737,1.0,5.67,1111122 
TCOON,ioos:station:TCOON:127:1,2017-06-22T22:30:00Z,28.2598,-96.7737,1.0,5.49,1111122 
TCOON,ioos:station:TCOON:127:1,2017-06-22T23:30:00Z,28.2598,-96.7737,1.0,5.74,1111122 
TCOON,ioos:station:TCOON:127:1,2017-06-23T00:30:00Z,28.2598,-96.7737,1.0,5.46,1111122 
TCOON,ioos:station:TCOON:127:1,2017-06-23T01:30:00Z,28.2598,-96.7737,1.0,5.2,1111122 
TCOON,ioos:station:TCOON:127:1,2017-06-23T02:30:00Z,28.2598,-96.7737,1.0,5.07,1111122 
TCOON,ioos:station:TCOON:127:1,2017-06-23T03:30:00Z,28.2598,-96.7737,1.0,4.84,1111122 
TCOON,ioos:station:TCOON:127:1,2017-06-23T05:30:00Z,28.2598,-96.7737,1.0,4.62,1111122 
TCOON,ioos:station:TCOON:127:1,2017-06-23T06:30:00Z,28.2598,-96.7737,1.0,4.47,1111122 
TCOON,ioos:station:TCOON:127:1,2017-06-23T07:30:00Z,28.2598,-96.7737,1.0,4.35,1111122 
TCOON,ioos:station:TCOON:127:1,2017-06-23T08:30:00Z,28.2598,-96.7737,1.0,4.39,1111122 
TCOON,ioos:station:TCOON:127:1,2017-06-23T09:30:00Z,28.2598,-96.7737,1.0,4.27,1111122 
TCOON,ioos:station:TCOON:127:1,2017-06-23T10:30:00Z,28.2598,-96.7737,1.0,4.33,1111122 
TCOON,ioos:station:TCOON:127:1,2017-06-23T11:30:00Z,28.2598,-96.7737,1.0,4.36,1111122 
TCOON,ioos:station:TCOON:127:1,2017-06-23T12:30:00Z,28.2598,-96.7737,1.0,4.23,1111122 
TCOON,ioos:station:TCOON:127:1,2017-06-23T13:30:00Z,28.2598,-96.7737,1.0,3.96,1111122 
TCOON,ioos:station:TCOON:127:1,2017-06-23T14:30:00Z,28.2598,-96.7737,1.0,4.27,1111122 
TCOON,ioos:station:TCOON:127:1,2017-06-23T15:30:00Z,28.2598,-96.7737,1.0,4.22,1111122 
TCOON,ioos:station:TCOON:127:1,2017-06-23T16:30:00Z,28.2598,-96.7737,1.0,12.94,1111122 
TCOON,ioos:station:TCOON:127:1,2017-06-23T17:30:00Z,28.2598,-96.7737,1.0,12.9,1111122 
TCOON,ioos:station:TCOON:127:1,2017-06-23T18:30:00Z,28.2598,-96.7737,1.0,13.12,1111122 
TCOON,ioos:station:TCOON:127:1,2017-06-23T19:30:00Z,28.2598,-96.7737,1.0,13.31,1111122 
TCOON,ioos:station:TCOON:127:1,2017-06-23T20:30:00Z,28.2598,-96.7737,1.0,13.58,1111122 
TCOON,ioos:station:TCOON:127:1,2017-06-23T21:30:00Z,28.2598,-96.7737,1.0,13.82,1111122 
TCOON,ioos:station:TCOON:127:1,2017-06-23T22:30:00Z,28.2598,-96.7737,1.0,14.01,1111122 
TCOON,ioos:station:TCOON:127:1,2017-06-23T23:30:00Z,28.2598,-96.7737,1.0,13.91,1111122 
TCOON,ioos:station:TCOON:127:1,2017-06-24T00:30:00Z,28.2598,-96.7737,1.0,13.72,1111122 
TCOON,ioos:station:TCOON:127:1,2017-06-24T01:30:00Z,28.2598,-96.7737,1.0,13.8,1111122 
TCOON,ioos:station:TCOON:127:1,2017-06-24T02:30:00Z,28.2598,-96.7737,1.0,13.81,1111122 
TCOON,ioos:station:TCOON:127:1,2017-06-24T03:30:00Z,28.2598,-96.7737,1.0,13.86,1111122 
TCOON,ioos:station:TCOON:127:1,2017-06-24T04:30:00Z,28.2598,-96.7737,1.0,13.74,1111122 
TCOON,ioos:station:TCOON:127:1,2017-06-24T05:30:00Z,28.2598,-96.7737,1.0,13.52,1111122 
TCOON,ioos:station:TCOON:127:1,2017-06-24T06:30:00Z,28.2598,-96.7737,1.0,13.33,1111122 
TCOON,ioos:station:TCOON:127:1,2017-06-24T07:30:00Z,28.2598,-96.7737,1.0,13.21,1111122 
TCOON,ioos:station:TCOON:127:1,2017-06-24T08:30:00Z,28.2598,-96.7737,1.0,13.11,1111122 
TCOON,ioos:station:TCOON:127:1,2017-06-24T09:30:00Z,28.2598,-96.7737,1.0,12.98,1111122 
TCOON,ioos:station:TCOON:127:1,2017-06-24T10:30:00Z,28.2598,-96.7737,1.0,12.71,1111122 
TCOON,ioos:station:TCOON:127:1,2017-06-24T11:30:00Z,28.2598,-96.7737,1.0,12.57,1111122 
TCOON,ioos:station:TCOON:127:1,2017-06-24T12:30:00Z,28.2598,-96.7737,1.0,12.46,1111122 
TCOON,ioos:station:TCOON:127:1,2017-06-24T13:30:00Z,28.2598,-96.7737,1.0,12.38,1111122 
TCOON,ioos:station:TCOON:127:1,2017-06-24T14:30:00Z,28.2598,-96.7737,1.0,12.42,1111122 
TCOON,ioos:station:TCOON:127:1,2017-06-24T15:30:00Z,28.2598,-96.7737,1.0,12.56,1111122 
TCOON,ioos:station:TCOON:127:1,2017-06-24T16:30:00Z,28.2598,-96.7737,1.0,12.98,1111122 
TCOON,ioos:station:TCOON:127:1,2017-06-24T17:30:00Z,28.2598,-96.7737,1.0,13.26,1111122 
TCOON,ioos:station:TCOON:127:1,2017-06-24T18:30:00Z,28.2598,-96.7737,1.0,13.62,1111122 
TCOON,ioos:station:TCOON:127:1,2017-06-24T19:30:00Z,28.2598,-96.7737,1.0,13.74,1111122 
TCOON,ioos:station:TCOON:127:1,2017-06-24T20:30:00Z,28.2598,-96.7737,1.0,13.34,1111122 
TCOON,ioos:station:TCOON:127:1,2017-06-24T21:30:00Z,28.2598,-96.7737,1.0,13.31,1111122 
TCOON,ioos:station:TCOON:127:1,2017-06-24T22:30:00Z,28.2598,-96.7737,1.0,13.33,1111122 
TCOON,ioos:station:TCOON:127:1,2017-06-24T23:30:00Z,28.2598,-96.7737,1.0,13.42,1111122 
TCOON,ioos:station:TCOON:127:1,2017-06-25T00:30:00Z,28.2598,-96.7737,1.0,13.16,1111122 
TCOON,ioos:station:TCOON:127:1,2017-06-25T01:30:00Z,28.2598,-96.7737,1.0,12.99,1111122 
TCOON,ioos:station:TCOON:127:1,2017-06-25T02:30:00Z,28.2598,-96.7737,1.0,12.78,1111122 
TCOON,ioos:station:TCOON:127:1,2017-06-25T03:30:00Z,28.2598,-96.7737,1.0,12.82,1111122 
TCOON,ioos:station:TCOON:127:1,2017-06-25T04:30:00Z,28.2598,-96.7737,1.0,12.78,1111122 
TCOON,ioos:station:TCOON:127:1,2017-06-25T05:30:00Z,28.2598,-96.7737,1.0,13.04,1111122 
TCOON,ioos:station:TCOON:127:1,2017-06-25T06:30:00Z,28.2598,-96.7737,1.0,12.79,1111122 
TCOON,ioos:station:TCOON:127:1,2017-06-25T07:30:00Z,28.2598,-96.7737,1.0,12.78,1111122 
TCOON,ioos:station:TCOON:127:1,2017-06-25T08:30:00Z,28.2598,-96.7737,1.0,12.34,1111122 
TCOON,ioos:station:TCOON:127:1,2017-06-25T09:30:00Z,28.2598,-96.7737,1.0,12.34,1111122 
TCOON,ioos:station:TCOON:127:1,2017-06-25T10:30:00Z,28.2598,-96.7737,1.0,12.25,1111122 
TCOON,ioos:station:TCOON:127:1,2017-06-25T11:30:00Z,28.2598,-96.7737,1.0,12.14,1111122 
TCOON,ioos:station:TCOON:127:1,2017-06-25T12:30:00Z,28.2598,-96.7737,1.0,12.07,1111122 
TCOON,ioos:station:TCOON:127:1,2017-06-25T13:30:00Z,28.2598,-96.7737,1.0,12.17,1111122 
TCOON,ioos:station:TCOON:127:1,2017-06-25T14:30:00Z,28.2598,-96.7737,1.0,12.14,1111122 
TCOON,ioos:station:TCOON:127:1,2017-06-25T15:30:00Z,28.2598,-96.7737,1.0,12.27,1111122 
TCOON,ioos:station:TCOON:127:1,2017-06-25T16:30:00Z,28.2598,-96.7737,1.0,11.92,1111122 
TCOON,ioos:station:TCOON:127:1,2017-06-25T17:30:00Z,28.2598,-96.7737,1.0,11.78,1111122 
TCOON,ioos:station:TCOON:127:1,2017-06-25T18:30:00Z,28.2598,-96.7737,1.0,12.61,1111122 
TCOON,ioos:station:TCOON:127:1,2017-06-25T19:30:00Z,28.2598,-96.7737,1.0,13.07,1111122 
TCOON,ioos:station:TCOON:127:1,2017-06-25T20:30:00Z,28.2598,-96.7737,1.0,13.59,1111122 
TCOON,ioos:station:TCOON:127:1,2017-06-25T21:30:00Z,28.2598,-96.7737,1.0,13.86,1111122 
TCOON,ioos:station:TCOON:127:1,2017-06-25T22:30:00Z,28.2598,-96.7737,1.0,13.82,1111122 
TCOON,ioos:station:TCOON:127:1,2017-06-25T23:30:00Z,28.2598,-96.7737,1.0,13.64,1111122 
TCOON,ioos:station:TCOON:127:1,2017-06-26T00:30:00Z,28.2598,-96.7737,1.0,13.23,1111122 
TCOON,ioos:station:TCOON:127:1,2017-06-26T01:30:00Z,28.2598,-96.7737,1.0,13.04,1111122 
TCOON,ioos:station:TCOON:127:1,2017-06-26T02:30:00Z,28.2598,-96.7737,1.0,12.74,1111122 
TCOON,ioos:station:TCOON:127:1,2017-06-26T03:30:00Z,28.2598,-96.7737,1.0,12.58,1111122 
TCOON,ioos:station:TCOON:127:1,2017-06-26T04:30:00Z,28.2598,-96.7737,1.0,12.35,1111122 
TCOON,ioos:station:TCOON:127:1,2017-06-26T05:30:00Z,28.2598,-96.7737,1.0,12.18,1111122 
TCOON,ioos:station:TCOON:127:1,2017-06-26T06:30:00Z,28.2598,-96.7737,1.0,11.95,1111122 
TCOON,ioos:station:TCOON:127:1,2017-06-26T07:30:00Z,28.2598,-96.7737,1.0,11.7,1111122 
TCOON,ioos:station:TCOON:127:1,2017-06-26T08:30:00Z,28.2598,-96.7737,1.0,11.8,1111122 
TCOON,ioos:station:TCOON:127:1,2017-06-26T09:30:00Z,28.2598,-96.7737,1.0,11.32,1111122 
TCOON,ioos:station:TCOON:127:1,2017-06-26T10:30:00Z,28.2598,-96.7737,1.0,10.81,1111122 
TCOON,ioos:station:TCOON:127:1,2017-06-26T11:30:00Z,28.2598,-96.7737,1.0,10.51,1111122 
TCOON,ioos:station:TCOON:127:1,2017-06-26T12:30:00Z,28.2598,-96.7737,1.0,10.72,1111122 
TCOON,ioos:station:TCOON:127:1,2017-06-26T13:30:00Z,28.2598,-96.7737,1.0,9.74,1111122 
TCOON,ioos:station:TCOON:127:1,2017-06-26T14:30:00Z,28.2598,-96.7737,1.0,9.87,1111122 
TCOON,ioos:station:TCOON:127:1,2017-06-26T15:30:00Z,28.2598,-96.7737,1.0,10.0,1111122 
TCOON,ioos:station:TCOON:127:1,2017-06-26T16:30:00Z,28.2598,-96.7737,1.0,10.79,1111122 
TCOON,ioos:station:TCOON:127:1,2017-06-26T17:30:00Z,28.2598,-96.7737,1.0,11.29,1111122 
TCOON,ioos:station:TCOON:127:1,2017-06-26T18:30:00Z,28.2598,-96.7737,1.0,11.39,1111122 
TCOON,ioos:station:TCOON:127:1,2017-06-26T19:30:00Z,28.2598,-96.7737,1.0,11.94,1111122 
TCOON,ioos:station:TCOON:127:1,2017-06-26T20:30:00Z,28.2598,-96.7737,1.0,12.21,1111122 
TCOON,ioos:station:TCOON:127:1,2017-06-26T21:30:00Z,28.2598,-96.7737,1.0,12.41,1111122 
TCOON,ioos:station:TCOON:127:1,2017-06-27T01:30:00Z,28.2598,-96.7737,1.0,11.64,1111122 
TCOON,ioos:station:TCOON:127:1,2017-06-27T02:30:00Z,28.2598,-96.7737,1.0,11.19,1111122 
TCOON,ioos:station:TCOON:127:1,2017-06-27T03:30:00Z,28.2598,-96.7737,1.0,10.9,1111122 
TCOON,ioos:station:TCOON:127:1,2017-06-27T04:30:00Z,28.2598,-96.7737,1.0,10.44,1111122 
TCOON,ioos:station:TCOON:127:1,2017-06-27T06:30:00Z,28.2598,-96.7737,1.0,10.05,1111122 
TCOON,ioos:station:TCOON:127:1,2017-06-27T07:30:00Z,28.2598,-96.7737,1.0,10.01,1111122 
TCOON,ioos:station:TCOON:127:1,2017-06-27T08:30:00Z,28.2598,-96.7737,1.0,9.83,1111122 
TCOON,ioos:station:TCOON:127:1,2017-06-27T09:30:00Z,28.2598,-96.7737,1.0,9.43,1111122 
TCOON,ioos:station:TCOON:127:1,2017-06-27T10:30:00Z,28.2598,-96.7737,1.0,9.21,1111122 
TCOON,ioos:station:TCOON:127:1,2017-06-27T11:30:00Z,28.2598,-96.7737,1.0,8.46,1111122 
TCOON,ioos:station:TCOON:127:1,2017-06-27T12:30:00Z,28.2598,-96.7737,1.0,8.74,1111122 
TCOON,ioos:station:TCOON:127:1,2017-06-27T13:30:00Z,28.2598,-96.7737,1.0,8.65,1111122 
TCOON,ioos:station:TCOON:127:1,2017-06-27T14:30:00Z,28.2598,-96.7737,1.0,10.34,1111122 
TCOON,ioos:station:TCOON:127:1,2017-06-28T06:00:00Z,28.2598,-96.7737,1.0,8.51,1111122 
TCOON,ioos:station:TCOON:127:1,2017-06-28T06:30:00Z,28.2598,-96.7737,1.0,8.47,1111122 
TCOON,ioos:station:TCOON:127:1,2017-06-28T07:30:00Z,28.2598,-96.7737,1.0,8.24,1111122 
TCOON,ioos:station:TCOON:127:1,2017-06-28T08:30:00Z,28.2598,-96.7737,1.0,8.08,1111122 
TCOON,ioos:station:TCOON:127:1,2017-06-28T09:30:00Z,28.2598,-96.7737,1.0,7.86,1111122 
TCOON,ioos:station:TCOON:127:1,2017-06-28T10:30:00Z,28.2598,-96.7737,1.0,7.65,1111122 
TCOON,ioos:station:TCOON:127:1,2017-06-28T11:30:00Z,28.2598,-96.7737,1.0,7.74,1111122 
TCOON,ioos:station:TCOON:127:1,2017-06-28T12:30:00Z,28.2598,-96.7737,1.0,7.74,1111122 
TCOON,ioos:station:TCOON:127:1,2017-06-28T13:30:00Z,28.2598,-96.7737,1.0,7.82,1111122 
TCOON,ioos:station:TCOON:127:1,2017-06-28T14:30:00Z,28.2598,-96.7737,1.0,7.83,1111122 